COSMOS 1603 DEB

Satellite information

Favourite Embed

Satellite Type and Status

DEBRISIN ORBIT

Key statistics

Satellite COSMOS 1603 DEB at a glance.

Uptime

14833

Days in orbit

Revolutions

≈ 14.2

Per day

Orbit

LEO

Low Earth Orbit

Inclination

71.0

Latest

Satellite identification and parameters

Extended collection of information and parameters for COSMOS 1603 DEB.

Object identification

Identified? True

Debris? True

Object name: COSMOS 1603 DEB

International designator: 1984-106AE

Object number (NORAD): 43312

Object ID (CCSDS): 43312

Country: COMMONWEALTH OF INDEPENDENT STATES (CIS)

Current information (Y/N): Y

RCS size: SMALL

Orbital parameters

Period: 101.357 minutes

Inclination: 71.0241 deg

SMA: 7201.038 km

Apoapsis: 834.825 km

Periapsis: 810.98 km

RAAN: 157.757 deg

Eccentricy: 0.0016557

Argument of periapsis: 135.0144 deg

Mean anomaly: 225.2327 deg

Mean motion: 14.20725359 rev/day

Mean motion (dot): 0.00001276 rev/day2

B* drag term: 0.0006128 1/REarth

Two-line elements (TLE)

Creation date: May 8, 2025, 3:01 a.m.

Reference frame: TEME

Reference center: EARTH

Epoch: May 7, 2025, 12:07 p.m. UTC

TLE line 0: 0 COSMOS 1603 DEB

TLE line 1: 1 43312U 84106AE 25127.50545007 .00001276 00000-0 61280-3 0 9991

TLE line 2: 2 43312 71.0241 157.7570 0016557 135.0144 225.2327 14.20725359477047

Live tracking on map

Real-time ground track for satellite COSMOS 1603 DEB.

In-orbit conjunctions

A list of the most updated potential collisions computed for object COSMOS 1603 DEB.

Target Orbit TCA Probability of collision Miss distance Type
NOAA 16 DEB SSO 2024-11-14 10:38:32 0.0007843578 205.0 (m) DEBRIS
FENGYUN 1C DEB SSO 2024-11-11 00:47:32 0.0002436076 392.0 (m) DEBRIS
FENGYUN 1C DEB SSO 2024-07-08 12:25:50 0.0002925236 64.0 (m) DEBRIS
SL-16 DEB LEO 2024-06-10 23:49:16 0.0001031868 349.0 (m) DEBRIS

Associated space launch

Second generation ELING satellite

COSMOS 1603 DEB was lifted into orbit during the mission ‘Proton | Tselina-2 1’, on board a Proton space rocket.

The launch took place on Sept. 28, 1984, 2 p.m. from 200/39 (200L).

For more information about the launch, click the button.

Launch to space Proton | Tselina-2 1
Proton | Tselina-2 1

Agency: N/A

Status: Launch Successful

Launch date: Sept. 28, 1984, 2 p.m. UTC

Rocket: Proton

Launch pad: 200/39 (200L)

Location: Baikonur Cosmodrome, Republic of Kazakhstan

...

Latest news about this satellite

There are no fresh news available about this satellite. Check back as we update our databases every day.


Newsletter sign-up

Weekly statistics, charts and insights to help you stay on top of the space industry.